Location: Cabeza Gorda
(40.0667°N, 4.9667°W)
Time: 04:52:21
(UTC+00:00)

Cosmos 1302 Rocket - Pass Details

Date: 15 January 2026
Orbit: 752 x 772 km, 74.0° (Epoch: 15 February)

Event Time Altitude Azimuth Distance (km) Brightness Sun altitude
Exits shadow 05:52:36 40° 263° (W) 1,126 4.4 -20.2°
Maximum altitude 05:52:46 40° 258° (WSW) 1,124 4.4 -20.2°
Drops below altitude 10° 05:57:36 10° 190° (S) 2,295 6.5 -19.3°
Sets 06:00:05 0° 183° (S) 3,213 7.3 -18.8°
